User: anonymous   Login
Location: Oshawa
(43.9000°N, 78.8670°W)
Time: 06:14:05
(UTC-04:00)
Language:

Envisat - Orbit

View from above orbital plane
View from above orbital plane
View from above satellite
View from above satellite

Ground track
Ground track

The orbit data is extracted from the following two-line orbital elements,

1 27386U 02009A   18113.95992333 -.00000015 +00000-0 +87089-5 0  9998
2 27386 098.1902 150.5599 0001415 091.0613 330.1956 14.37920214845661
Epoch (UTC): 23 April 2018 23:02:17
Eccentricity: 0.0001415
inclination: 98.1902°
perigee height: 764 km
apogee height: 766 km
right ascension of ascending node: 150.5599°
argument of perigee: 91.0613°
revolutions per day: 14.37920214
mean anomaly at epoch: 330.1956°
orbit number at epoch: 84566

The dashed part of the orbit path shows where the satellite is in the earth's shadow,  

DLR